• Join FlightAware (Why Join?)
  • Login
  • US Flag 
02:45AM EDT


 

Airport Tracker/Info


-or-


 

Live Flight TrackerFlight Track Log ✈ ACA7033 ✈ 26-Apr-2013 ✈ KRDU - KPIT

Flight Track Log - Related Links

Times and Time Zones

All times are in EDT time to prevent confusion due to time zone crossing. See the ACA7033 flight status page for this flight to view local times or setup timezone preferences in your user account.

Time Position Orientation Groundspeed Altitude Reporting Facility
EDT Latitude Longitude Course Direction KTS MPH feet Rate Location/Type
01:54PM 35.8864 -78.7711 25° Northeast 171 197 1,500  Level Washington Center
01:55PM 35.9119 -78.7567 25° Northeast 170 196 2,900 2,640 Climbing Washington Center
01:56PM 35.9653 -78.7897 333° Northwest 251 289 5,900 3,360 Climbing Washington Center
01:57PM 35.9794 -78.8800 281° West 261 300 9,900 2,820 Climbing Washington Center
01:58PM 35.9953 -78.9833 281° West 282 325 11,700 2,340 Climbing Washington Center
01:59PM 36.0128 -79.1047 280° West 327 376 14,700 3,060 Climbing Washington Center
02:00PM 36.0300 -79.2289 280° West 372 428 17,900 2,760 Climbing Washington Center
02:01PM 36.0828 -79.3444 299° West 378 435 20,200 2,340 Climbing Washington Center
02:02PM 36.1853 -79.3983 337° Northwest 361 415 22,600 2,100 Climbing Washington Center
02:03PM 36.2694 -79.4408 338° Northwest 374 430 24,500 1,980 Climbing Washington Center
02:04PM 36.3925 -79.5064 337° Northwest 401 461 26,700 1,200 Climbing Washington Center
02:05PM 36.4947 -79.5683 334° Northwest 406 467 27,000 120 Climbing Washington Center
02:06PM 36.5992 -79.6306 334° Northwest 406 467 27,000  Level Washington Center
02:07PM 36.6931 -79.6872 334° Northwest 406 467 27,000  Level Washington Center
02:08PM 36.7975 -79.7472 335° Northwest 411 473 27,000  Level Washington Center
02:09PM 36.8997 -79.8100 334° Northwest 411 473 27,000  Level Washington Center
02:10PM 37.0039 -79.8728 334° Northwest 411 473 27,000  Level Washington Center
02:11PM 37.1100 -79.9336 335° Northwest 417 480 27,000  Level Washington Center
02:12PM 37.2244 -80.0053 334° Northwest 417 480 27,000  Level Washington Center
02:13PM 37.3331 -80.0558 340° North 417 480 27,000  Level Washington Center
02:14PM 37.4508 -80.0811 350° North 417 480 27,000  Level Washington Center
02:15PM 37.5719 -80.0831 359° North 424 488 27,000  Level Washington Center
02:16PM 37.6928 -80.0850 359° North 424 488 27,000  Level Washington Center
02:17PM 37.8117 -80.0842 360° North 424 488 27,000  Level Washington Center
02:18PM 37.9222 -80.0856 359° North 424 488 27,000 -120 Level Washington Center
02:19PM 38.0406 -80.0478 14° North 424 488 26,800 -600 Descending Washington Center
02:20PM 38.1608 -80.0075 15° North 429 494 25,800 -1,200 Descending Washington Center
02:21PM 38.2794 -79.9561 19° North 442 509 24,400 -900 Descending Washington Center
02:22PM 38.4131 -79.8950 20° North 455 524 24,000 -240 Descending Washington Center
02:23PM 38.5353 -79.8572 14° North 455 524 24,000  Level Washington Center
02:24PM 38.6619 -79.8139 15° North 445 512 24,000 -300 Level Washington Center
02:25PM 38.7844 -79.7756 14° North 445 512 23,400 -900 Descending Washington Center
02:27PM 39.0797 -79.6819 14° North 444 511 21,000 -720 Descending Cleveland Center
02:28PM 39.1986 -79.6858 359° North 428 493 21,000  Level Cleveland Center
02:29PM 39.3175 -79.6897 359° North 418 481 21,000  Level Cleveland Center
02:30PM 39.4342 -79.6936 359° North 418 481 21,000  Level Cleveland Center
02:31PM 39.5531 -79.6947 360° North 418 481 21,000  Level Cleveland Center
02:32PM 39.6719 -79.6986 359° North 423 487 21,000 -960 Level Cleveland Center
02:33PM 39.7908 -79.7050 358° North 423 487 19,100 -2,460 Descending Cleveland Center
02:34PM 39.9075 -79.7061 360° North 423 487 16,100 -4,560 Descending Cleveland Center
02:35PM 40.0181 -79.7128 357° North 413 475 10,000 -3,060 Descending Cleveland Center
02:36PM 40.1181 -79.7197 357° North 393 452 10,000  Level Cleveland Center
02:37PM 40.1750 -79.7925 316° Northwest 310 357 10,000  Level Cleveland Center
02:38PM 40.2256 -79.8653 312° West 282 325 10,000  Level Cleveland Center
02:39PM 40.2781 -79.9436 311° West 282 325 10,000 -180 Level Cleveland Center
02:40PM 40.3283 -80.0167 312° West 269 310 9,700 -960 Descending Cleveland Center
02:41PM 40.3683 -80.0817 309° West 269 310 8,100 -1,800 Descending Cleveland Center
02:42PM 40.4042 -80.1606 301° West 264 304 6,200 -1,200 Descending Cleveland Center
02:43PM 40.4169 -80.2503 281° West 252 290 5,800 -420 Descending Cleveland Center
02:45PM 40.4833 -80.2167 323° Northwest  Level FlightAware Approximate
02:52PM 40.4915 -80.2329 323° Northwest  Level Estimated
02:53PM 40.4915 -80.2329 323° Northwest  Level Estimated
02:54PM 40.4915 -80.2329 323° Northwest  Level Estimated
02:55PM 40.4915 -80.2329 323° Northwest  Level Estimated